sat.trackr.live / text

‹ back to catalog

UNKNOWN

NORAD 87884

UNKNOWN UNKNOWN UNKNOWN

§ Identity

Operator
Country
Launch date
Launch site
Launch vehicle
Mass (kg)
RCS (m²)

External: N2YO · Heavens-Above

§ Orbital elements

Epoch: 2026-09-17T05:39:15.160896Z

Period
102.41 min
Inclination
98.7429°
Eccentricity
0.0153672
Mean motion
14.06144142 rev/d
Perigee alt
761.2 km
Apogee alt
984.0 km
Semi-major
7,250.7 km
B*
2.2203e-5
RAAN
359.4315°
Arg perigee
5.0296°
Mean anomaly
355.2374°
Rev number
65,750

§ Raw data

UNKNOWN1 87884U          26260.23559214 -.00000002  00000+0  22203-4 0  99972 87884  98.7429 359.4315 0153672   5.0296 355.2374 14.06144142657501

JSON: /api/v1/satellites/87884 · /tle

For live sub-satellite position, see the globe view (requires WebGL).

§ Visibility from observer

Set your observer location to see the next 7 days of passes ≥ 10°. The values pass through the URL so the page stays shareable.

No JS? Fill the form by hand. The geolocation button needs JavaScript.